Location: Theydon Bois
(51.6750°N, 0.1050°E)
Time: 15:11:50
(UTC+00:00)

Tiangong 1 - Visible Passes

Search period start: 16 January 2018 00:00
Search period end: 26 January 2018 00:00
Orbit: 264 x 288 km, 42.8° (Epoch: 16 January)

Date Brightness Start Highest point End Pass type
(mag) Time Alt. Az. Time Alt. Az. Time Alt. Az.
17 Jan 3.5 18:31:58 10° SSW 18:32:21 11° S 18:32:21 11° S visible
18 Jan 3.4 18:31:38 10° SSW 18:32:16 11° S 18:32:16 11° S visible
19 Jan 3.5 18:31:28 10° SSW 18:32:01 10° S 18:32:05 10° S visible
